Location: Unspecified
(0.0000°N, 0.0000°E)
Time: 21:47:57
(UTC+00:00)

Altair - All Passes

Search period start: 26 July 2016 00:00
Search period end: 05 August 2016 00:00
Orbit: 1502 x 1682 km, 47.2° (Epoch: 26 July)

Date Brightness Start Highest point End Pass type
(mag) Time Alt. Az. Time Alt. Az. Time Alt. Az.
26 Jul - 03:32:39 10° NNE 03:36:15 12° NE 03:39:52 10° ENE visible
26 Jul - 05:31:37 10° NNW 05:41:22 70° NE 05:51:25 10° SE visible
26 Jul - 07:38:28 10° W 07:46:13 26° SW 07:54:10 10° S daylight
26 Jul - 16:19:11 10° S 16:27:08 29° SE 16:34:49 10° ENE daylight
26 Jul - 18:22:31 10° SW 18:31:43 58° NW 18:40:42 10° NNE visible
27 Jul - 03:09:42 10° NE 03:10:57 10° NE 03:12:13 10° NE visible
27 Jul - 05:06:34 10° NNW 05:16:12 63° NE 05:26:08 10° SE visible
27 Jul - 07:12:50 10° WNW 07:20:59 29° SW 07:29:21 10° S daylight
27 Jul - 15:54:22 10° S 16:01:56 26° SE 16:09:16 10° E daylight
27 Jul - 17:57:14 10° SW 18:06:36 65° NW 18:15:41 10° NNE daylight
28 Jul - 04:41:33 10° NNW 04:51:02 56° NE 05:00:49 10° SE visible
28 Jul - 06:47:16 10° WNW 06:55:45 32° SW 07:04:29 10° SSE daylight
28 Jul - 15:29:36 10° S 15:36:44 23° SE 15:43:38 10° E daylight
28 Jul - 17:31:59 10° SW 17:41:28 73° NW 17:50:39 10° NNE daylight
28 Jul - 19:43:14 10° WNW 19:46:24 12° NW 19:49:33 10° NNW visible
29 Jul - 04:16:35 10° NNW 04:25:52 50° NE 04:35:27 10° ESE visible
29 Jul - 06:21:46 10° WNW 06:30:32 36° SW 06:39:34 10° SSE daylight
29 Jul - 15:04:54 10° S 15:11:29 20° SE 15:17:53 10° E daylight
29 Jul - 17:06:45 10° SW 17:16:21 81° NW 17:25:35 10° NE daylight
29 Jul - 19:16:42 10° WNW 19:21:09 14° NW 19:25:36 10° NNW visible
30 Jul - 03:51:38 10° NNW 04:00:41 45° NE 04:10:02 10° ESE visible
30 Jul - 05:56:20 10° WNW 06:05:20 41° SW 06:14:37 10° SSE daylight
30 Jul - 14:40:18 10° S 14:46:15 18° SE 14:52:02 10° E daylight
30 Jul - 16:41:34 10° SW 16:51:12 90° WNW 17:00:30 10° NE daylight
30 Jul - 18:50:32 10° W 18:55:56 17° NW 19:01:18 10° N visible
31 Jul - 03:26:44 10° NNW 03:35:31 40° NE 03:44:35 10° ESE visible
31 Jul - 05:30:57 10° WNW 05:40:08 46° SW 05:49:38 10° SSE visible
31 Jul - 14:15:49 10° SSE 14:20:59 15° SE 14:26:02 10° ESE daylight
31 Jul - 16:16:24 10° SW 16:26:04 82° SE 16:35:22 10° NE daylight
31 Jul - 18:24:33 10° W 18:30:43 19° NW 18:36:49 10° N visible
01 Aug - 03:01:51 10° NNW 03:10:20 35° NE 03:19:04 10° ESE visible
01 Aug - 05:05:37 10° WNW 05:14:57 51° SW 05:24:37 10° SSE visible
01 Aug - 13:51:33 10° SSE 13:55:42 13° SE 13:59:47 10° ESE daylight
01 Aug - 15:51:17 10° SSW 16:00:57 74° SE 16:10:13 10° NE daylight
01 Aug - 17:58:43 10° W 18:05:31 22° NW 18:12:14 10° N daylight
02 Aug - 02:37:02 10° N 02:45:10 31° NE 02:53:31 10° ESE visible
02 Aug - 04:40:19 10° NW 04:49:46 57° SW 04:59:35 10° SSE visible
02 Aug - 13:27:43 10° SSE 13:30:24 11° SE 13:33:02 10° ESE daylight
02 Aug - 15:26:10 10° SSW 15:35:48 66° SE 15:45:02 10° NE daylight
02 Aug - 17:33:00 10° W 17:40:20 25° NW 17:47:33 10° N daylight
03 Aug - 02:12:15 10° N 02:19:58 28° NE 02:27:53 10° ESE visible
03 Aug - 04:15:04 10° NW 04:24:35 64° SW 04:34:30 10° SSE visible
03 Aug - 06:27:39 10° WSW 06:30:07 11° SW 06:32:37 10° SSW daylight
03 Aug - 15:01:06 10° SSW 15:10:39 59° SE 15:19:48 10° NE daylight
03 Aug - 17:07:21 10° WSW 17:15:10 29° NW 17:22:49 10° N daylight
04 Aug - 01:47:31 10° N 01:54:47 24° NE 02:02:11 10° E visible
04 Aug - 03:49:51 10° NW 03:59:25 71° SW 04:09:24 10° SSE visible
04 Aug - 06:00:44 10° WSW 06:04:47 13° SW 06:08:55 10° SSW daylight
04 Aug - 14:36:03 10° SSW 14:45:29 53° SE 14:54:32 10° NE daylight
04 Aug - 16:41:46 10° WSW 16:50:00 33° NW 16:58:02 10° N daylight
